Location: Bratislava
(48.1500°N, 17.1170°E)
Time: 21:33:52
(UTC+02:00)

OTV 5 (USA 277) - Visible Passes

Search period start: 23 September 2018 00:00
Search period end: 03 October 2018 00:00
Orbit: 387 x 394 km, 54.5° (Epoch: 08 September)

Date Brightness Start Highest point End Pass type
(mag) Time Alt. Az. Time Alt. Az. Time Alt. Az.
27 Sep ? 06:11:38 10° SSW 06:14:31 32° SE 06:17:26 10° ENE visible
28 Sep ? 05:16:14 10° S 05:18:23 17° SE 05:20:32 10° E visible
29 Sep ? 05:54:29 10° SW 05:57:38 56° SE 06:00:48 10° ENE visible
30 Sep ? 05:00:26 24° S 05:01:24 28° SE 05:04:13 10° ENE visible
01 Oct ? 04:06:30 13° ESE 04:06:30 13° ESE 04:07:12 10° E visible
01 Oct ? 05:38:54 22° WSW 05:40:48 85° NNW 05:44:01 10° ENE visible
02 Oct ? 04:44:52 46° ESE 04:44:52 46° ESE 04:47:36 10° ENE visible
02 Oct ? 06:17:29 10° W 06:20:30 36° NNW 06:23:31 10° NE visible
